Location: Bo?a Wola
(50.4192°N, 19.7966°E)
Time: 02:57:03
(UTC+00:00)

Resurs 1-4 Rocket - Pass Details

Date: 15 June 2024
Orbit: 799 x 812 km, 98.7° (Epoch: 22 July)

Event Time Altitude Azimuth Distance (km) Brightness Sun altitude
Rises 00:50:22 0° 15° (NNE) 3,326 7.0 -10.9°
Reaches altitude 10° 00:52:42 10° 16° (NNE) 2,392 6.0 -10.7°
Maximum altitude 00:58:01 86° 105° (ESE) 814 2.1 -10.3°
Enters shadow 01:03:04 11° 195° (SSW) 2,294 3.9 -9.9°
